GFSFLT1_sfc_30mbdewp_321.txt.gz
Dewpoint
57 58 58 58 58 58 58 60 61 61 62 61 62 60 60 61 61 59 59 58 56 54 51 60 62 61 61 60 60 59 58 56
58 59 59 58 58 59 59 59 60 60 60 60 59 58 58 58 60 59 59 58 58 55 52 60 62 61 60 60 59 58 56 54
58 60 59 59 59 60 59 60 60 61 60 59 58 57 57 56 58 58 59 59 59 57 54 55 61 61 61 60 59 57 55 55
57 59 59 60 60 60 60 60 59 59 58 58 57 57 55 55 54 56 57 58 59 58 58 56 59 60 60 59 59 57 55 55
55 58 60 60 60 61 60 60 58 58 58 56 54 53 51 51 51 53 55 58 58 59 59 58 59 59 60 59 59 58 57 55
53 58 59 60 61 60 60 59 58 57 56 55 54 53 52 49 50 52 55 57 58 59 60 60 60 60 60 59 58 58 58 56
51 57 59 59 60 60 60 59 58 56 55 54 53 52 51 48 50 52 54 56 59 60 60 61 61 60 60 60 59 58 57 57
50 54 58 59 60 60 60 59 57 56 55 53 53 53 52 49 51 51 52 55 58 60 61 62 61 61 60 60 59 57 57 55
48 53 56 58 60 59 60 59 57 56 55 53 53 53 52 50 51 50 52 56 58 60 62 61 61 61 60 59 58 57 56 55
49 49 55 57 59 59 59 59 58 57 55 54 53 53 53 52 52 53 54 57 58 61 62 61 62 61 60 59 58 57 56 55
49 51 52 56 58 59 59 59 58 57 56 54 53 54 54 55 56 57 56 58 59 60 61 61 61 61 61 60 58 57 56 55
49 52 55 55 57 58 59 59 59 58 57 55 54 54 55 57 58 59 59 60 61 60 60 60 60 60 60 60 59 58 56 55
50 54 54 55 55 57 58 59 59 58 58 58 57 56 57 58 59 59 60 61 61 60 60 60 60 60 59 59 59 57 56 55
45 49 54 54 55 56 57 58 58 58 58 59 59 58 59 59 59 60 61 60 60 60 60 60 59 59 58 59 58 57 56 55
38 41 45 50 55 55 55 56 57 57 58 59 58 58 59 59 60 60 60 60 59 59 59 59 58 58 58 57 57 56 56 55
34 36 41 44 48 50 56 57 57 57 57 58 58 59 59 59 59 59 59 59 59 58 57 57 57 57 56 55 55 54 54 53
29 31 34 42 45 47 48 50 57 58 58 58 58 59 59 58 58 58 58 58 58 58 56 56 56 55 54 53 54 53 53 52
29 28 31 36 44 45 46 47 49 51 57 58 58 57 57 57 57 58 57 57 56 56 56 55 55 55 51 51 52 53 52 51
30 28 28 31 40 45 45 45 46 46 46 48 53 55 55 55 55 55 55 54 54 54 54 54 54 53 49 49 50 52 50 49

GFSFLT1_sfc_30mbdewp_324.txt.gz
Dewpoint
22 43 50 53 55 57 59 61 61 63 63 62 60 62 65 64 62 59 57 53 54 54 56 59 59 57 58 60 61 61 59 58
32 39 49 53 55 56 58 60 61 62 62 61 62 56 59 63 61 58 58 53 53 52 54 60 57 57 59 61 61 59 58 57
28 43 51 55 55 57 58 58 61 61 61 61 61 58 54 58 62 58 59 56 55 52 50 57 56 56 61 62 60 58 57 56
12 44 53 56 57 58 58 58 60 61 61 61 59 58 55 53 56 60 58 58 57 54 52 53 56 56 61 61 60 59 56 57
10 37 53 57 58 59 59 59 59 60 60 58 56 56 53 51 53 56 56 58 58 57 55 54 56 57 61 62 61 60 58 57
9 25 49 58 59 60 60 59 58 59 60 57 57 55 52 51 49 53 56 57 58 57 57 55 56 55 58 60 60 61 60 58
10 19 44 54 58 60 61 60 59 59 58 58 58 56 52 49 48 50 54 55 58 58 57 58 57 55 56 59 61 61 59 59
10 12 39 51 56 60 61 61 60 59 59 58 57 56 54 52 51 50 50 53 55 58 58 59 59 57 56 59 60 60 61 60
26 19 35 47 54 60 61 60 60 60 59 58 56 56 55 53 51 49 50 52 53 56 59 59 59 59 59 60 61 61 61 61
45 44 46 47 53 59 61 60 60 60 59 58 56 55 54 53 52 51 50 51 53 57 59 58 59 60 60 61 60 61 60 61
46 49 47 51 52 56 61 61 61 61 60 58 56 55 54 54 52 52 51 51 52 55 58 58 59 60 60 60 60 61 60 60
44 49 51 49 53 55 60 62 61 61 60 59 57 55 54 54 53 53 52 52 53 53 56 58 59 60 60 61 61 61 60 60
38 44 47 54 51 55 58 61 61 61 60 59 59 57 54 54 54 53 55 54 54 55 57 58 58 59 60 61 61 61 60 60
34 37 43 47 54 53 58 60 61 61 60 59 59 58 56 55 55 56 56 56 56 56 55 57 57 59 59 61 61 61 60 60
32 33 38 44 47 50 56 59 60 61 61 60 59 58 57 57 57 58 59 59 58 58 58 57 59 59 59 61 60 61 60 60
32 31 34 40 44 46 48 52 59 60 60 59 60 60 59 59 59 59 60 60 60 60 60 60 60 60 60 60 60 60 60 59
33 33 32 36 43 44 46 47 51 58 59 59 60 60 60 59 60 61 61 61 60 60 60 60 60 60 58 58 59 59 59 58
33 33 34 34 41 43 44 45 46 47 49 57 59 59 59 59 59 59 59 59 60 59 59 58 58 58 55 55 56 58 58 57
32 34 35 33 37 39 41 43 43 44 45 46 48 58 58 58 58 58 59 59 59 60 59 59 58 58 54 53 53 58 57 56

GFSFLT1_sfc_30mbdewp_330.txt.gz
Dewpoint
6 11 8 11 34 59 61 61 64 65 66 66 66 66 66 65 64 64 61 59 58 60 60 61 61 64 64 63 62 62 61 59
10 14 13 13 27 58 60 60 63 64 65 65 64 64 65 65 65 64 61 62 59 58 57 60 60 62 62 62 62 61 59 56
8 11 15 20 35 57 59 61 63 63 65 65 64 64 65 65 64 62 62 62 61 61 61 62 60 62 62 63 61 60 57 56
12 15 16 27 36 56 58 61 62 62 63 64 64 64 65 64 63 62 62 61 62 62 61 61 60 60 62 63 61 59 57 57
37 31 14 18 36 56 57 61 61 62 63 61 62 63 62 63 62 61 60 59 61 62 60 61 59 61 63 63 61 59 58 57
36 38 41 43 31 56 57 61 62 62 62 62 61 58 62 63 63 61 59 61 61 61 60 62 59 61 63 62 61 60 60 58
35 36 38 40 44 48 57 61 62 62 62 62 61 59 58 62 62 61 59 59 59 58 58 60 61 60 64 63 62 62 60 59
33 34 36 38 40 44 58 61 61 62 62 61 61 60 59 59 61 61 60 58 58 57 56 57 61 60 64 63 63 62 63 61
31 34 35 36 38 42 47 58 61 62 62 61 61 60 60 58 59 60 59 59 58 57 57 56 58 60 62 63 63 63 63 62
31 33 34 36 37 39 45 50 58 61 61 61 61 60 60 59 56 59 60 59 59 60 58 59 58 60 60 63 63 62 63 63
30 31 33 35 37 40 46 50 53 62 61 61 61 60 60 59 57 54 60 59 59 59 60 59 59 59 59 60 60 62 62 62
30 31 33 35 38 40 44 48 51 61 61 61 60 59 60 60 58 55 54 59 59 58 60 60 60 59 59 59 59 60 61 62
31 32 33 35 37 38 41 44 48 56 61 62 61 61 60 60 59 56 54 57 58 58 59 59 60 60 60 58 59 59 61 62
31 32 33 35 35 38 39 41 45 49 61 61 62 62 61 61 60 58 55 54 56 56 58 59 59 60 59 60 59 59 60 61
29 32 33 33 36 36 38 40 43 47 59 62 61 62 61 60 60 57 56 55 54 54 57 59 59 59 59 59 60 60 60 61
29 32 32 33 35 35 39 38 41 44 49 58 61 62 61 60 59 58 57 55 55 54 54 57 59 58 58 58 59 60 60 60
29 31 33 33 34 35 36 39 39 41 44 46 50 61 61 60 59 59 58 58 55 55 53 55 56 56 56 56 59 60 60 61
28 30 33 33 34 36 36 35 39 39 40 42 45 48 60 60 59 58 58 57 57 55 55 53 55 57 54 55 57 60 60 61
25 29 32 34 35 36 36 36 36 38 38 40 42 43 47 56 58 58 58 57 58 57 56 56 56 57 54 54 54 60 59 61

GFSFLT1_sfc_30mbdewp_333.txt.gz
Dewpoint
12 11 13 10 56 62 60 63 65 67 67 66 66 66 64 64 63 63 63 61 62 61 61 61 64 64 64 64 63 63 62 60
36 38 39 31 45 61 60 62 63 65 66 65 65 64 64 63 63 62 61 61 60 59 62 62 63 63 64 63 62 60 58 56
34 36 37 39 43 61 61 62 62 63 65 65 65 64 64 63 63 62 62 61 60 59 60 61 62 64 64 63 61 59 56 56
31 33 35 37 40 47 60 63 62 62 64 65 65 65 65 63 63 62 62 63 60 59 58 60 61 63 63 62 60 58 56 56
30 32 34 36 38 42 49 62 63 62 64 64 64 63 62 62 63 62 62 63 61 58 57 61 62 63 63 62 61 58 57 56
30 32 34 35 37 39 45 57 62 62 63 63 63 63 63 63 62 61 61 63 62 61 61 62 62 62 63 62 60 58 57 57
29 31 33 35 37 39 42 47 57 61 62 62 62 62 63 63 62 60 60 61 60 62 62 62 62 62 63 62 60 59 58 57
29 30 31 34 35 39 42 45 50 54 62 61 62 62 62 62 61 60 60 59 59 59 59 60 62 62 62 62 60 60 59 58
28 29 31 33 35 38 41 44 47 51 55 60 60 61 61 63 61 60 59 59 58 58 58 58 60 61 63 62 61 60 60 60
27 29 31 32 34 36 39 41 44 48 51 53 61 60 59 61 62 61 59 59 59 58 58 57 58 61 63 62 62 61 61 62
28 29 30 32 33 36 37 40 42 45 48 52 61 61 60 59 62 62 61 59 58 58 57 56 57 60 62 63 62 62 61 62
28 29 30 31 33 35 36 39 40 43 46 50 59 61 60 59 60 61 61 60 58 58 56 56 56 57 60 62 62 62 62 62
26 29 31 31 32 34 35 36 40 41 43 47 55 61 61 60 59 58 61 59 59 59 58 56 57 55 59 59 61 62 61 61
25 28 29 31 32 33 35 36 37 40 42 46 54 61 60 60 60 59 59 60 59 59 59 58 58 58 57 59 59 59 61 61
24 26 28 30 31 33 34 35 36 39 41 43 48 55 60 60 61 60 56 59 59 59 59 59 58 59 58 58 58 58 59 61
22 22 26 29 31 32 34 34 36 38 39 41 45 51 55 60 61 60 59 56 58 59 58 59 59 59 60 59 58 57 59 59
18 19 24 29 30 31 35 34 35 38 39 38 42 45 50 56 61 61 59 57 56 57 57 58 59 59 59 58 59 59 58 59
15 23 22 28 29 32 32 34 35 36 38 38 39 42 44 47 55 61 59 58 56 55 55 57 58 59 57 56 57 59 60 60
15 21 23 25 26 31 32 35 34 35 37 38 38 39 41 42 45 58 60 59 58 56 55 54 57 59 56 54 55 59 59 60

GFSFLT1_sfc_30mbdewp_336.txt.gz
Dewpoint
31 33 35 36 39 55 62 65 66 66 65 65 65 65 64 64 63 64 64 64 63 60 61 58 63 62 63 63 63 63 61 60
30 32 34 35 37 42 61 64 66 66 64 63 64 63 63 63 62 63 63 63 63 61 62 59 64 63 63 63 63 62 60 58
29 31 33 35 36 39 44 51 65 65 65 63 64 64 63 63 62 62 63 63 63 60 59 62 64 63 63 63 62 59 58 59
29 30 31 34 35 38 42 46 53 65 64 64 64 64 63 62 62 61 62 62 60 57 56 55 61 62 63 62 61 59 57 57
28 30 31 33 35 38 42 46 51 63 65 64 63 62 61 61 61 61 61 61 59 58 59 59 60 61 63 62 61 59 57 56
27 29 31 32 35 37 41 45 49 55 61 63 63 62 63 62 62 61 61 60 59 60 60 61 58 61 63 63 61 59 59 56
27 29 31 32 34 36 39 42 45 49 54 57 62 62 62 62 61 61 61 61 59 59 60 59 60 61 63 63 62 60 58 57
30 29 31 32 33 35 37 40 42 45 50 55 58 62 62 61 62 61 61 61 61 58 57 56 61 62 63 63 62 61 59 57
28 30 30 32 33 35 36 38 41 43 46 50 54 56 63 62 61 61 61 60 61 59 56 56 60 61 62 63 62 60 59 58
27 29 29 31 32 34 36 38 39 41 43 47 49 53 61 63 62 61 61 60 61 60 59 59 60 62 61 61 61 60 59 58
24 27 30 29 31 34 35 36 37 40 41 43 47 50 56 62 62 62 61 61 60 60 59 60 60 61 61 61 61 60 60 59
21 23 27 28 30 32 33 35 36 38 41 42 44 47 52 61 61 61 61 61 60 59 59 58 58 58 60 62 61 60 60 60
20 20 23 28 28 30 32 34 34 36 39 40 42 46 51 61 61 62 61 60 60 60 59 58 57 57 57 61 61 61 60 60
15 19 22 26 27 29 30 33 33 35 38 40 40 42 45 55 61 61 62 61 60 59 59 58 57 56 56 60 61 61 61 61
17 17 21 25 25 28 30 32 33 35 36 38 39 39 43 47 53 61 61 62 61 59 58 57 57 56 56 58 61 61 61 61
17 17 20 21 25 26 29 30 32 34 35 37 38 39 40 43 50 55 61 60 61 60 59 58 57 56 56 56 58 60 61 61
17 17 18 20 23 25 27 30 30 33 33 35 38 38 38 41 44 48 57 59 61 60 59 59 58 57 56 55 56 58 59 60
17 17 18 20 22 24 27 26 27 30 32 34 36 37 38 39 41 44 49 58 59 61 61 60 59 58 56 56 55 57 57 58
16 17 18 18 19 20 24 26 27 26 31 33 35 37 37 38 39 41 44 51 59 59 60 60 59 59 56 55 55 58 58 57